Valentine, NE

12:57 AM CDT on August 31, 2016 (GMT -0500)
Miller Field

Weather History for KVTN - December, 2013

Change the Weather History Date:

Thursday, December 19, 2013

  Actual Average Record
Temperature  
Mean Temperature 20 °F 23 °F  
Max Temperature 34 °F 36 °F 66 °F (1894)
Min Temperature 5 °F 10 °F -26 °F (1989)
Degree Days  
Heating Degree Days 45 42  
Month to date heating degree days 912 771  
Since 1 July heating degree days 2471 2389  
Cooling Degree Days 0 0  
Month to date cooling degree days 0 0  
Year to date cooling degree days 964 821  
Moisture  
Dew Point 11 °F    
Average Humidity 88    
Maximum Humidity 100    
Minimum Humidity 75    
Precipitation  
Precipitation T in 0.02 in 0.25 in (1987)
Month to date precipitation 0.69 0.24  
Year to date precipitation 23.61 19.89  
Snow  
Snow T in 0.20 in 1.70 in (1925)
Month to date snowfall 12.0 3.1  
Since 1 July snowfall 18.8 10.7  
Snow Depth 1.00 in    
Sea Level Pressure  
Sea Level Pressure 29.94 in    
Wind  
Wind Speed 14 mph (NNE)    
Max Wind Speed 21 mph    
Max Gust Speed 28 mph    
Visibility 3 miles    
Events Fog , Snow    
T = Trace of Precipitation, MM = Missing Value Source: NWS Daily Summary

Daily Weather History Graph

Daily Weather History Graph

Search for Another Location

Airport or City:

Trip Planner

Search our weather history database for the weather conditions in past years. The results will help you decide how hot, cold, wet, or windy it might be!

Date:

Astronomy

Dec. 19, 2013 Rise Set
Actual Time 8:08 AM CST 5:10 PM CST
Civil Twilight 7:36 AM CST 5:42 PM CST
Nautical Twilight 7:00 AM CST 6:18 PM CST
Astronomical Twilight 6:26 AM CST 6:52 PM CST
Moon 7:40 PM CST (12/19) 9:25 AM CST (12/19)
Length of Visible Light 10h 06m
Length of Day
9h 01m
Waning Gibbous, 95% of the Moon is Illuminated
Dec 19
Waning Gibbous
Dec 25
Last Quarter
Jan 1
New
Jan 7
First Quarter
Jan 15
Full

Hourly Weather History & Observations

Time (CST) Temp. Windchill Dew Point Humidity Pressure Visibility Wind Dir Wind Speed Gust Speed Precip Events Conditions
12:52 AM 32.0 °F 23.0 °F 26.1 °F 79% 29.86 in 10.0 mi NNE 11.5 mph - N/A   Clear
1:52 AM 30.0 °F 22.4 °F 26.1 °F 85% 29.86 in 10.0 mi NE 8.1 mph - N/A   Clear
2:13 AM 28.4 °F 18.0 °F 26.6 °F 93% 29.82 in 10.0 mi NNE 12.7 mph - N/A   Mostly Cloudy
2:52 AM 28.9 °F 19.8 °F 26.1 °F 89% 29.87 in 7.0 mi NNE 10.4 mph - N/A   Overcast
3:17 AM 28.4 °F 18.0 °F 26.6 °F 93% 29.83 in 5.0 mi NNE 12.7 mph - N/A   Overcast
3:52 AM 28.0 °F 17.0 °F 26.1 °F 92% 29.88 in 4.0 mi NE 13.8 mph - N/A   Overcast
4:19 AM 26.6 °F 16.8 °F 26.6 °F 100% 29.84 in 2.5 mi NE 10.4 mph - N/A   Overcast
4:50 AM 26.6 °F 15.7 °F 24.8 °F 93% 29.85 in 1.2 mi NE 12.7 mph - N/A   Overcast
4:52 AM 26.1 °F 14.5 °F 25.0 °F 96% 29.90 in 1.0 mi NE 13.8 mph - N/A   Overcast
5:03 AM 26.6 °F 15.7 °F 24.8 °F 93% 29.85 in 0.5 mi ENE 12.7 mph - N/A Fog Light Freezing Fog
5:52 AM 24.1 °F 11.5 °F 23.0 °F 96% 29.92 in 0.2 mi NE 15.0 mph 20.7 mph N/A Fog Light Freezing Fog
6:52 AM 25.0 °F 13.1 °F 23.0 °F 92% 29.92 in 0.5 mi ENE 13.8 mph - N/A Fog Light Freezing Fog
7:52 AM 21.9 °F 11.7 °F 21.0 °F 96% 29.95 in 0.5 mi NE 9.2 mph - N/A Fog Light Freezing Fog
8:52 AM 19.9 °F 5.7 °F 19.0 °F 96% 29.96 in 0.2 mi NE 16.1 mph - N/A Fog Light Freezing Fog
9:52 AM 18.0 °F 3.6 °F 16.0 °F 92% 29.98 in 0.8 mi NE 15.0 mph 23.0 mph N/A   Overcast
9:58 AM 17.6 °F 2.2 °F 15.8 °F 93% 29.88 in 1.2 mi NE 17.3 mph - N/A   Overcast
10:12 AM 17.6 °F 5.7 °F 15.8 °F 93% 29.90 in 2.5 mi NNE 10.4 mph - N/A   Overcast
10:39 AM 17.6 °F 5.0 °F 15.8 °F 93% 29.90 in 1.5 mi NE 11.5 mph - N/A   Overcast
10:52 AM 17.1 °F 5.0 °F 14.0 °F 88% 30.01 in 1.0 mi NE 10.4 mph - N/A   Overcast
10:58 AM 17.6 °F 5.0 °F 15.8 °F 93% 29.90 in 2.0 mi NE 11.5 mph - N/A   Overcast
11:14 AM 17.6 °F 3.7 °F 14.0 °F 86% 29.89 in 4.0 mi NE 13.8 mph - N/A   Overcast
11:34 AM 17.6 °F 2.2 °F 14.0 °F 86% 29.86 in 3.0 mi NE 17.3 mph - N/A   Overcast
11:52 AM 16.0 °F 0.6 °F 12.9 °F 88% 29.96 in 3.0 mi NE 16.1 mph - N/A   Overcast
12:07 PM 15.8 °F -0.2 °F 12.2 °F 86% 29.86 in 2.5 mi NNE 17.3 mph - N/A   Overcast
12:39 PM 15.8 °F 3.4 °F 10.4 °F 79% 29.87 in 1.5 mi North 10.4 mph - 0.00 in Snow Light Snow
12:50 PM 15.8 °F 5.1 °F 10.4 °F 79% 29.88 in 1.0 mi North 8.1 mph - 0.00 in Snow Light Snow
12:52 PM 15.1 °F 3.3 °F 12.0 °F 88% 29.97 in 1.0 mi North 9.2 mph - 0.00 in Snow Light Snow
1:34 PM 12.2 °F -3.1 °F 10.4 °F 92% 29.84 in 0.8 mi NNE 13.8 mph - 0.00 in Snow Light Snow
1:48 PM 12.2 °F -3.7 °F 8.6 °F 85% 29.85 in 1.2 mi NNE 15.0 mph - 0.00 in Snow Light Snow
1:49 PM 12.2 °F -3.7 °F 8.6 °F 85% 29.85 in 1.0 mi NNE 15.0 mph - 0.00 in Snow Light Snow
1:52 PM 12.0 °F -4.5 °F 9.0 °F 88% 29.96 in 1.0 mi North 16.1 mph 20.7 mph 0.00 in Snow Light Snow
2:04 PM 12.2 °F -4.8 °F 8.6 °F 85% 29.87 in 1.5 mi North 17.3 mph - 0.00 in Snow Light Snow
2:16 PM 10.4 °F -6.6 °F 6.8 °F 85% 29.87 in 1.0 mi NNE 16.1 mph 21.9 mph 0.00 in Snow Light Snow
2:52 PM 9.0 °F -9.0 °F 5.0 °F 84% 30.00 in 1.0 mi North 17.3 mph 23.0 mph 0.00 in Snow Light Snow
2:57 PM 8.6 °F -11.0 °F 5.0 °F 85% 29.89 in 2.0 mi North 20.7 mph 25.3 mph 0.00 in Snow Light Snow
3:10 PM 8.6 °F -8.9 °F 5.0 °F 85% 29.89 in 1.0 mi NNE 16.1 mph - 0.00 in Snow Light Snow
3:27 PM 8.6 °F -10.5 °F 3.2 °F 79% 29.90 in 1.5 mi North 19.6 mph 24.2 mph 0.00 in   Overcast
3:36 PM 8.6 °F -9.5 °F 3.2 °F 79% 29.90 in 3.0 mi North 17.3 mph - 0.00 in   Overcast
3:41 PM 8.6 °F -10.0 °F 3.2 °F 79% 29.91 in 1.8 mi North 18.4 mph - 0.00 in   Overcast
3:52 PM 8.1 °F -9.0 °F 3.9 °F 83% 30.03 in 1.0 mi North 15.0 mph - 0.00 in Snow Light Snow
4:17 PM 6.8 °F -10.7 °F 3.2 °F 85% 29.92 in 1.2 mi North 15.0 mph - 0.00 in Snow Light Snow
4:52 PM 7.0 °F -11.0 °F 3.0 °F 84% 30.05 in 1.0 mi North 16.1 mph - 0.00 in Snow Light Snow
4:58 PM 6.8 °F -10.7 °F 3.2 °F 85% 29.92 in 2.0 mi North 15.0 mph 23.0 mph 0.00 in Snow Light Snow
5:05 PM 6.8 °F -7.8 °F 3.2 °F 85% 29.94 in 3.0 mi North 10.4 mph 19.6 mph 0.00 in   Overcast
5:44 PM 6.8 °F -8.6 °F 3.2 °F 85% 29.94 in 2.0 mi North 11.5 mph 19.6 mph 0.00 in Snow Light Snow
5:52 PM 7.0 °F -11.0 °F 1.9 °F 80% 30.08 in 6.0 mi North 16.1 mph 23.0 mph 0.00 in   Haze
6:52 PM 8.1 °F -9.0 °F 3.0 °F 80% 30.09 in 7.0 mi North 15.0 mph - 0.00 in   Overcast
7:06 PM 6.8 °F -10.0 °F 1.4 °F 79% 29.99 in 8.0 mi NNW 13.8 mph - N/A   Overcast
7:52 PM 7.0 °F -10.4 °F 1.9 °F 80% 30.13 in 7.0 mi North 15.0 mph - N/A   Overcast
8:52 PM 6.1 °F -13.8 °F -0.0 °F 76% 30.14 in 9.0 mi NNW 19.6 mph 25.3 mph 0.00 in   Overcast
9:01 PM 6.8 °F -10.7 °F -0.4 °F 72% 30.00 in 7.0 mi NNW 15.0 mph - N/A   Overcast
9:52 PM 5.0 °F -14.2 °F -0.0 °F 80% 30.15 in 9.0 mi NNW 17.3 mph - N/A   Overcast
10:52 PM 5.0 °F -13.0 °F -0.9 °F 76% 30.17 in 8.0 mi NNW 15.0 mph - N/A   Overcast
11:52 PM 5.0 °F -12.3 °F -0.0 °F 80% 30.17 in 9.0 mi NNW 13.8 mph - N/A   Overcast